Location: WHS+Essen
(51.3947°N, 6.9794°E)
Time: 16:29:57
(UTC+02:00)

ISS - Pass Details

Date: 23 May 2019
Orbit: 408 x 418 km, 51.6° (Epoch: 16 June)

Event Time Altitude Azimuth Distance (km) Brightness Sun altitude
Rises 00:12:49 0° 274° (W) 2,359 0.4 -16.2°
Reaches altitude 10° 00:14:54 10° 275° (W) 1,498 -0.7 -16.3°
Maximum altitude 00:18:16 85° 2° (N) 426 -3.8 -16.5°
Enters shadow 00:21:07 14° 93° (E) 1,283 -1.5 -16.6°
